Time,TemperatureF,DewpointF,PressureIn,WindDirection,WindDirectionDegrees,WindSpeedMPH,WindSpeedGustMPH,Humidity,HourlyPrecipIn,Conditions,Clouds,dailyrainin,SoftwareType,DateUTC
2013-07-20 00:01:00,58.0,49.0,-100.00,East,100,1.0,7.0,74,-99.99,,,-99.99,,2013-07-20 08:01:00,
2013-07-20 00:11:00,58.0,49.0,-100.00,East,100,1.0,7.0,74,-99.99,,,-99.99,,2013-07-20 08:11:00,
2013-07-20 00:22:00,58.0,49.0,-100.00,East,100,1.0,7.0,74,-99.99,,,-99.99,,2013-07-20 08:22:00,
2013-07-20 00:44:00,58.0,50.0,-100.00,East,90,2.0,6.0,76,-99.99,,,-99.99,,2013-07-20 08:44:00,
2013-07-20 00:52:00,57.0,50.0,-100.00,East,95,4.0,6.0,78,-99.99,,,-99.99,,2013-07-20 08:52:00,
2013-07-20 01:02:00,57.0,50.0,-100.00,East,95,4.0,6.0,78,-99.99,,,-99.99,,2013-07-20 09:02:00,
2013-07-20 01:11:00,57.0,50.0,-100.00,East,95,4.0,6.0,78,-99.99,,,-99.99,,2013-07-20 09:11:00,
2013-07-20 01:22:00,56.0,50.0,-100.00,East,95,4.0,8.0,80,-99.99,,,-99.99,,2013-07-20 09:22:00,
2013-07-20 01:33:00,56.0,50.0,-100.00,East,95,4.0,8.0,80,-99.99,,,-99.99,,2013-07-20 09:33:00,
2013-07-20 01:43:00,56.0,50.0,-100.00,East,95,4.0,8.0,80,-99.99,,,-99.99,,2013-07-20 09:43:00,
2013-07-20 02:01:00,56.0,51.0,-100.00,East,95,4.0,9.0,83,-99.99,,,-99.99,,2013-07-20 10:01:00,
2013-07-20 02:11:00,56.0,51.0,-100.00,East,95,4.0,9.0,83,-99.99,,,-99.99,,2013-07-20 10:11:00,
2013-07-20 02:21:00,55.0,51.0,-100.00,East,95,4.0,10.0,85,-99.99,,,-99.99,,2013-07-20 10:21:00,
2013-07-20 02:32:00,55.0,51.0,-100.00,East,95,4.0,10.0,85,-99.99,,,-99.99,,2013-07-20 10:32:00,
2013-07-20 02:42:00,55.0,51.0,-100.00,East,95,4.0,10.0,85,-99.99,,,-99.99,,2013-07-20 10:42:00,
2013-07-20 03:01:00,55.0,51.0,-100.00,ESE,110,2.0,6.0,86,-99.99,,,-99.99,,2013-07-20 11:01:00,
2013-07-20 03:11:00,55.0,51.0,-100.00,ESE,110,2.0,6.0,86,-99.99,,,-99.99,,2013-07-20 11:11:00,
2013-07-20 03:22:00,54.0,51.0,-100.00,East,100,2.0,8.0,88,-99.99,,,-99.99,,2013-07-20 11:22:00,
2013-07-20 03:32:00,54.0,51.0,-100.00,East,100,2.0,8.0,88,-99.99,,,-99.99,,2013-07-20 11:32:00,
2013-07-20 03:43:00,54.0,51.0,-100.00,East,100,2.0,8.0,88,-99.99,,,-99.99,,2013-07-20 11:43:00,
2013-07-20 04:01:00,54.0,51.0,-100.00,ESE,120,2.0,7.0,89,-99.99,,,-99.99,,2013-07-20 12:01:00,
2013-07-20 04:11:00,54.0,51.0,-100.00,ESE,120,2.0,7.0,89,-99.99,,,-99.99,,2013-07-20 12:11:00,
2013-07-20 04:22:00,54.0,50.0,-100.00,ESE,105,4.0,9.0,89,-99.99,,,-99.99,,2013-07-20 12:22:00,
2013-07-20 04:32:00,54.0,50.0,-100.00,ESE,105,4.0,9.0,89,-99.99,,,-99.99,,2013-07-20 12:32:00,
2013-07-20 04:52:00,54.0,50.0,-100.00,East,95,5.0,9.0,89,-99.99,,,-99.99,,2013-07-20 12:52:00,
2013-07-20 05:01:00,54.0,50.0,-100.00,East,95,5.0,9.0,89,-99.99,,,-99.99,,2013-07-20 13:01:00,
2013-07-20 05:11:00,54.0,50.0,-100.00,East,95,5.0,9.0,89,-99.99,,,-99.99,,2013-07-20 13:11:00,
2013-07-20 05:22:00,53.0,50.0,-100.00,East,90,4.0,10.0,89,-99.99,,,-99.99,,2013-07-20 13:22:00,
2013-07-20 05:32:00,53.0,50.0,-100.00,East,90,4.0,10.0,89,-99.99,,,-99.99,,2013-07-20 13:32:00,
2013-07-20 05:43:00,53.0,50.0,-100.00,East,90,4.0,10.0,89,-99.99,,,-99.99,,2013-07-20 13:43:00,
2013-07-20 06:02:00,53.0,50.0,-100.00,East,100,7.0,14.0,89,-99.99,,,-99.99,,2013-07-20 14:02:00,
2013-07-20 06:11:00,53.0,50.0,-100.00,East,100,7.0,14.0,89,-99.99,,,-99.99,,2013-07-20 14:11:00,
2013-07-20 06:22:00,53.0,50.0,-100.00,ESE,110,5.0,9.0,89,-99.99,,,-99.99,,2013-07-20 14:22:00,
2013-07-20 06:32:00,53.0,50.0,-100.00,ESE,110,5.0,9.0,89,-99.99,,,-99.99,,2013-07-20 14:32:00,
2013-07-20 06:43:00,53.0,50.0,-100.00,ESE,110,5.0,9.0,89,-99.99,,,-99.99,,2013-07-20 14:43:00,
2013-07-20 07:01:00,53.0,50.0,-100.00,East,95,4.0,9.0,90,-99.99,,,-99.99,,2013-07-20 15:01:00,
2013-07-20 07:11:00,53.0,50.0,-100.00,East,95,4.0,9.0,90,-99.99,,,-99.99,,2013-07-20 15:11:00,
2013-07-20 07:22:00,54.0,51.0,-100.00,East,90,3.0,7.0,89,-99.99,,,-99.99,,2013-07-20 15:22:00,
2013-07-20 07:33:00,54.0,51.0,-100.00,East,90,3.0,7.0,89,-99.99,,,-99.99,,2013-07-20 15:33:00,
2013-07-20 07:44:00,54.0,51.0,-100.00,East,90,3.0,7.0,89,-99.99,,,-99.99,,2013-07-20 15:44:00,
2013-07-20 08:01:00,56.0,51.0,-100.00,East,100,4.0,9.0,86,-99.99,,,-99.99,,2013-07-20 16:01:00,
2013-07-20 08:11:00,56.0,51.0,-100.00,East,100,4.0,9.0,86,-99.99,,,-99.99,,2013-07-20 16:11:00,
2013-07-20 08:32:00,57.0,52.0,-100.00,East,85,1.0,10.0,82,-99.99,,,-99.99,,2013-07-20 16:32:00,
2013-07-20 08:43:00,57.0,52.0,-100.00,East,85,1.0,10.0,82,-99.99,,,-99.99,,2013-07-20 16:43:00,
2013-07-20 08:52:00,60.0,53.0,-100.00,East,95,1.0,6.0,78,-99.99,,,-99.99,,2013-07-20 16:52:00,
2013-07-20 09:02:00,60.0,53.0,-100.00,East,95,1.0,6.0,78,-99.99,,,-99.99,,2013-07-20 17:02:00,
2013-07-20 09:11:00,60.0,53.0,-100.00,East,95,1.0,6.0,78,-99.99,,,-99.99,,2013-07-20 17:11:00,
2013-07-20 09:22:00,60.0,53.0,-100.00,East,95,1.0,6.0,78,-99.99,,,-99.99,,2013-07-20 17:22:00,
2013-07-20 09:32:00,60.0,52.0,-100.00,ESE,105,2.0,9.0,74,-99.99,,,-99.99,,2013-07-20 17:32:00,
2013-07-20 09:43:00,60.0,52.0,-100.00,ESE,105,2.0,9.0,74,-99.99,,,-99.99,,2013-07-20 17:43:00,
2013-07-20 09:53:00,62.0,53.0,-100.00,NE,35,1.0,7.0,70,-99.99,,,-99.99,,2013-07-20 17:53:00,
2013-07-20 10:01:00,62.0,53.0,-100.00,NE,35,1.0,7.0,70,-99.99,,,-99.99,,2013-07-20 18:01:00,
2013-07-20 10:11:00,62.0,53.0,-100.00,NE,35,1.0,7.0,70,-99.99,,,-99.99,,2013-07-20 18:11:00,
2013-07-20 10:23:00,64.0,52.0,-100.00,East,85,2.0,7.0,65,-99.99,,,-99.99,,2013-07-20 18:23:00,
2013-07-20 10:32:00,64.0,52.0,-100.00,East,85,2.0,7.0,65,-99.99,,,-99.99,,2013-07-20 18:32:00,
2013-07-20 10:47:00,64.0,52.0,-100.00,East,85,2.0,7.0,65,-99.99,,,-99.99,,2013-07-20 18:47:00,
2013-07-20 10:57:00,67.0,52.0,-100.00,East,95,4.0,7.0,60,-99.99,,,-99.99,,2013-07-20 18:57:00,
2013-07-20 11:02:00,67.0,52.0,-100.00,East,95,4.0,7.0,60,-99.99,,,-99.99,,2013-07-20 19:02:00,
2013-07-20 11:35:00,66.0,47.0,-100.00,WSW,255,4.0,9.0,52,-99.99,,,-99.99,,2013-07-20 19:35:00,
2013-07-20 11:44:00,66.0,47.0,-100.00,WSW,255,4.0,9.0,52,-99.99,,,-99.99,,2013-07-20 19:44:00,
2013-07-20 12:03:00,66.0,47.0,-100.00,WSW,245,4.0,9.0,50,-99.99,,,-99.99,,2013-07-20 20:03:00,
2013-07-20 12:14:00,66.0,47.0,-100.00,WSW,245,4.0,9.0,50,-99.99,,,-99.99,,2013-07-20 20:14:00,
2013-07-20 12:22:00,67.0,48.0,-100.00,NW,305,4.0,8.0,52,-99.99,,,-99.99,,2013-07-20 20:22:00,
2013-07-20 12:35:00,67.0,48.0,-100.00,NW,305,4.0,8.0,52,-99.99,,,-99.99,,2013-07-20 20:35:00,
2013-07-20 12:56:00,67.0,48.0,-100.00,WSW,245,1.0,6.0,50,-99.99,,,-99.99,,2013-07-20 20:56:00,
2013-07-20 13:02:00,67.0,48.0,-100.00,WSW,245,1.0,6.0,50,-99.99,,,-99.99,,2013-07-20 21:02:00,
2013-07-20 13:12:00,67.0,48.0,-100.00,WSW,245,1.0,6.0,50,-99.99,,,-99.99,,2013-07-20 21:12:00,
2013-07-20 13:23:00,68.0,47.0,-100.00,West,260,3.0,7.0,47,-99.99,,,-99.99,,2013-07-20 21:23:00,
2013-07-20 13:32:00,68.0,47.0,-100.00,West,260,3.0,7.0,47,-99.99,,,-99.99,,2013-07-20 21:32:00,
2013-07-20 13:47:00,68.0,47.0,-100.00,West,260,3.0,7.0,47,-99.99,,,-99.99,,2013-07-20 21:47:00,
2013-07-20 13:55:00,68.0,46.0,-100.00,WSW,255,4.0,9.0,46,-99.99,,,-99.99,,2013-07-20 21:55:00,
2013-07-20 14:13:00,68.0,46.0,-100.00,WSW,255,4.0,9.0,46,-99.99,,,-99.99,,2013-07-20 22:13:00,
2013-07-20 14:33:00,68.0,46.0,-100.00,WSW,250,6.0,10.0,45,-99.99,,,-99.99,,2013-07-20 22:33:00,
2013-07-20 14:45:00,68.0,46.0,-100.00,WSW,250,6.0,10.0,45,-99.99,,,-99.99,,2013-07-20 22:45:00,
2013-07-20 14:52:00,69.0,46.0,-100.00,West,260,7.0,11.0,44,-99.99,,,-99.99,,2013-07-20 22:52:00,
2013-07-20 15:03:00,69.0,46.0,-100.00,West,260,7.0,11.0,44,-99.99,,,-99.99,,2013-07-20 23:03:00,
2013-07-20 15:14:00,69.0,46.0,-100.00,West,260,7.0,11.0,44,-99.99,,,-99.99,,2013-07-20 23:14:00,
2013-07-20 15:23:00,69.0,46.0,-100.00,WSW,245,6.0,10.0,43,-99.99,,,-99.99,,2013-07-20 23:23:00,
2013-07-20 15:38:00,69.0,46.0,-100.00,WSW,245,6.0,10.0,43,-99.99,,,-99.99,,2013-07-20 23:38:00,
2013-07-20 15:45:00,69.0,46.0,-100.00,WSW,245,6.0,10.0,43,-99.99,,,-99.99,,2013-07-20 23:45:00,
2013-07-20 16:22:00,70.0,46.0,-100.00,WSW,245,4.0,9.0,43,-99.99,,,-99.99,,2013-07-21 00:22:00,
2013-07-20 16:45:00,70.0,45.0,-100.00,WSW,250,7.0,11.0,42,-99.99,,,-99.99,,2013-07-21 00:45:00,
2013-07-20 16:55:00,70.0,45.0,-100.00,WSW,245,4.0,8.0,41,-99.99,,,-99.99,,2013-07-21 00:55:00,
2013-07-20 17:02:00,70.0,45.0,-100.00,WSW,245,4.0,8.0,41,-99.99,,,-99.99,,2013-07-21 01:02:00,
2013-07-20 17:11:00,70.0,45.0,-100.00,WSW,245,4.0,8.0,41,-99.99,,,-99.99,,2013-07-21 01:11:00,
2013-07-20 17:32:00,71.0,45.0,-100.00,WSW,250,6.0,9.0,40,-99.99,,,-99.99,,2013-07-21 01:32:00,
2013-07-20 17:51:00,-999.0,-99.9,-100.00,WSW,250,6.0,9.0,-999,-99.99,,,-99.99,,2013-07-21 01:51:00,
2013-07-20 18:13:00,71.0,46.0,-100.00,West,265,4.0,9.0,41,-99.99,,,-99.99,,2013-07-21 02:13:00,
2013-07-20 18:23:00,72.0,47.0,-100.00,WSW,250,4.0,7.0,41,-99.99,,,-99.99,,2013-07-21 02:23:00,
2013-07-20 18:37:00,72.0,47.0,-100.00,WSW,250,4.0,7.0,41,-99.99,,,-99.99,,2013-07-21 02:37:00,
2013-07-20 18:56:00,71.0,47.0,-100.00,West,260,4.0,9.0,43,-99.99,,,-99.99,,2013-07-21 02:56:00,
2013-07-20 19:02:00,71.0,47.0,-100.00,West,260,4.0,9.0,43,-99.99,,,-99.99,,2013-07-21 03:02:00,
2013-07-20 19:13:00,71.0,47.0,-100.00,West,260,4.0,9.0,43,-99.99,,,-99.99,,2013-07-21 03:13:00,
2013-07-20 19:33:00,71.0,46.0,-100.00,West,260,3.0,7.0,40,-99.99,,,-99.99,,2013-07-21 03:33:00,
2013-07-20 19:44:00,71.0,46.0,-100.00,West,260,3.0,7.0,40,-99.99,,,-99.99,,2013-07-21 03:44:00,
2013-07-20 19:53:00,70.0,45.0,-100.00,WSW,250,4.0,11.0,42,-99.99,,,-99.99,,2013-07-21 03:53:00,
2013-07-20 20:01:00,70.0,45.0,-100.00,WSW,250,4.0,11.0,42,-99.99,,,-99.99,,2013-07-21 04:01:00,
2013-07-20 20:11:00,70.0,45.0,-100.00,WSW,250,4.0,11.0,42,-99.99,,,-99.99,,2013-07-21 04:11:00,
2013-07-20 20:32:00,69.0,45.0,-100.00,West,265,5.0,9.0,42,-99.99,,,-99.99,,2013-07-21 04:32:00,
2013-07-20 20:43:00,69.0,45.0,-100.00,West,265,5.0,9.0,42,-99.99,,,-99.99,,2013-07-21 04:43:00,
2013-07-20 20:53:00,67.0,45.0,-100.00,West,260,4.0,11.0,45,-99.99,,,-99.99,,2013-07-21 04:53:00,
2013-07-20 21:02:00,67.0,45.0,-100.00,West,260,4.0,11.0,45,-99.99,,,-99.99,,2013-07-21 05:02:00,
2013-07-20 21:11:00,67.0,45.0,-100.00,West,260,4.0,11.0,45,-99.99,,,-99.99,,2013-07-21 05:11:00,
2013-07-20 21:21:00,68.0,45.0,-100.00,West,280,1.0,6.0,45,-99.99,,,-99.99,,2013-07-21 05:21:00,
2013-07-20 21:32:00,68.0,45.0,-100.00,West,280,1.0,6.0,45,-99.99,,,-99.99,,2013-07-21 05:32:00,
2013-07-20 21:42:00,68.0,45.0,-100.00,West,280,1.0,6.0,45,-99.99,,,-99.99,,2013-07-21 05:42:00,
2013-07-20 21:52:00,67.0,45.0,-100.00,WSW,245,1.0,4.0,46,-99.99,,,-99.99,,2013-07-21 05:52:00,
2013-07-20 22:01:00,67.0,45.0,-100.00,WSW,245,1.0,4.0,46,-99.99,,,-99.99,,2013-07-21 06:01:00,
2013-07-20 22:11:00,67.0,45.0,-100.00,WSW,245,1.0,4.0,46,-99.99,,,-99.99,,2013-07-21 06:11:00,
2013-07-20 22:22:00,64.0,45.0,-100.00,ESE,120,0.0,2.0,51,-99.99,,,-99.99,,2013-07-21 06:22:00,
2013-07-20 22:32:00,64.0,45.0,-100.00,ESE,120,0.0,2.0,51,-99.99,,,-99.99,,2013-07-21 06:32:00,
2013-07-20 22:43:00,64.0,45.0,-100.00,ESE,120,0.0,2.0,51,-99.99,,,-99.99,,2013-07-21 06:43:00,
2013-07-20 22:52:00,61.0,45.0,-100.00,SE,125,1.0,2.0,57,-99.99,,,-99.99,,2013-07-21 06:52:00,
2013-07-20 23:01:00,61.0,45.0,-100.00,SE,125,1.0,2.0,57,-99.99,,,-99.99,,2013-07-21 07:01:00,
2013-07-20 23:11:00,61.0,45.0,-100.00,SE,125,1.0,2.0,57,-99.99,,,-99.99,,2013-07-21 07:11:00,
2013-07-20 23:22:00,57.0,47.0,-100.00,ESE,110,2.0,3.0,69,-99.99,,,-99.99,,2013-07-21 07:22:00,
2013-07-20 23:32:00,57.0,47.0,-100.00,ESE,110,2.0,3.0,69,-99.99,,,-99.99,,2013-07-21 07:32:00,
2013-07-20 23:43:00,57.0,47.0,-100.00,ESE,110,2.0,3.0,69,-99.99,,,-99.99,,2013-07-21 07:43:00,
2013-07-20 23:52:00,53.0,47.0,-100.00,East,95,3.0,4.0,82,-99.99,,,-99.99,,2013-07-21 07:52:00,